Regional Weather Roundup
Issued by NWS Austin/San Antonio, TX

Home | Current Version | Previous Version | Text Only | Print | Product List | Glossary On
Versions: 1 2 3 4 5 6 7 8 9 10 11 12 13 14 15 16 17 18 19 20 21 22 23 24 25 26 27 28 29 30 31 32 33 34 35 36 37 38 39 40 41 42 43 44 45 46 47 48 49 50
000
ASUS44 KEWX 192001
RWREWX
SOUTH TEXAS REGIONAL WEATHER ROUNDUP
NATIONAL WEATHER SERVICE AUSTIN/SAN ANTONIO TX
200 PM CST SUN NOV 19 2017

NOTE: "FAIR" INDICATED FEW OR NO CLOUDS BELOW 12,000 FEET WITH NO
SIGNIFICANT WEATHER AND/OR OBSTRUCTIONS TO VISIBILITY.

* - THESE STATIONS ARE NOT NWS OR FAA STATIONS...AND ARE NOT SUBJECT
    TO NWS AND FAA QUALITY CONTROL.

TXZ171-172-183>190-192100-
TEXAS HILL COUNTRY AND EDWARDS PLATEAU

CITY           SKY/WX    TMP DP  RH WIND       PRES   REMARKS
JUNCTION       SUNNY     61  24  24 VRB5      30.28F
*LLANO         MOSUNNY   61  28  29 CALM      30.34F
BURNET         MOSUNNY   62  28  27 NE5       30.30F
*HORSESHOE BAY MOSUNNY   64  26  24 E3        30.29F
*KERRVILLE     PTSUNNY   59  24  25 E6        30.29F
*FREDERICKSBRG MOSUNNY   58  22  24 NE8       30.29F
*ROCKSPRINGS   NOT AVBL
*BOERNE STAGE  MOSUNNY   59  21  23 NE7       30.29F
*CASTROVILLE   MOSUNNY   65  22  20 E7        30.29F
HONDO          PTSUNNY   66  24  20 CALM      30.28F
*UVALDE        PTSUNNY   63  23  22 E6        30.29F
DEL RIO        MOSUNNY   61  24  24 S6        30.27F
LAUGHLIN AFB   PTSUNNY   61  22  22 S8        30.28F
CARRIZO SPRGS  SUNNY     63  28  27 E5        30.28F
*EAGLE PASS    CLEAR     63  23  22 VRB7      30.28F
$$

TXZ173-191>194-202-209-217>225-228-192100-
CENTRAL AND SOUTH CENTRAL TEXAS

CITY           SKY/WX    TMP DP  RH WIND       PRES   REMARKS
GEORGETOWN     MOSUNNY   62  28  27 VRB5      30.30F
AUSTIN/BERGSTM PTSUNNY   64  30  27 N12       30.27F
AUSTIN/MABRY   MOSUNNY   63  32  31 N6        30.29F
*AUSTIN/EXEC   MOSUNNY   61  27  27 NE9       30.28F
*LAGO VISTA    MOSUNNY   62  28  27 NE6       30.29F
SAN MARCOS     SUNNY     64  28  25 N8        30.29F
NEW BRAUNFELS  MOSUNNY   66  27  23 N9        30.27F
RANDOLPH AFB   MOSUNNY   63  25  23 NE8       30.28F
PT SAN ANTONIO MOSUNNY   64  25  23 NE7       30.26F
SAN ANTONIO    PTSUNNY   64  25  22 NE5       30.28F
STINSON FIELD  SUNNY     66  24  20 E8        30.26F
*LA GRANGE     MOSUNNY   65  33  30 NE6       30.26F
*GIDDINGS      MOSUNNY   61  29  29 NE5       30.28F
*GONZALES      MOSUNNY   66  30  26 N6        30.26F
$$

TXZ163>164-176>182-195>201-210>213-226-227-235-192100-
SOUTHEAST TEXAS

CITY           SKY/WX    TMP DP  RH WIND       PRES   REMARKS
COLLEGE STN    MOSUNNY   64  29  26 VRB7      30.26F
*BRYAN         MOSUNNY   62  29  28 N7        30.28F
*CALDWELL      MOSUNNY   63  30  29 N8        30.28F
*CROCKETT        N/A    N/A N/A N/A MISG        N/A
*BRENHAM       MOSUNNY   65  30  27 N8        30.26F
HUNTSVILLE     MOSUNNY   64  31  28 VRB7      30.25F
CONROE         SUNNY     65  31  28 N7        30.25F
HOUSTON BUSH   MOSUNNY   65  32  29 N10G21    30.24F
HOUSTON HOBBY  MOSUNNY   64  30  27 NE9       30.24F
*HOUSTON SW AP SUNNY     64  32  30 N9        30.25F
PEARLAND       SUNNY     66  29  24 N13       30.25F
HOUSTON HOOKS  SUNNY     65  31  28 VRB6      30.24F
ELLINGTON FLD  MOSUNNY   63  30  29 NW13      30.26F
SUGAR LAND     SUNNY     66  30  26 N9        30.24F
*HOUSTON EXEC  SUNNY     64  32  29 NE10      30.26F
*CLEVELAND MUN SUNNY     64  22  19 N9        30.25F
*WHARTON       SUNNY     65  26  23 N8        30.26F
*COLUMBUS      FAIR      65  24  21 N9        30.27F
*EAGLE LAKE    PTCLDY    66  31  27 N7G18     30.25F
$$

TXZ214>216-236>238-192100-
THE UPPER TEXAS COAST

CITY           SKY/WX    TMP DP  RH WIND       PRES   REMARKS
*ORANGE        SUNNY     63  32  31 N9        30.23F
PORT ARTHUR    SUNNY     65  34  31 N13       30.20F
GALVESTON      SUNNY     65  33  30 N13       30.25F
ANGLETON       SUNNY     66  30  26 N12G17    30.24F
*BAY CITY      SUNNY     65  31  27 CALM      30.24F
PALACIOS       SUNNY     66  30  26 N12G17    30.25F
$$

TXZ229>234-239>247-192100-
TEXAS COASTAL BEND AND RIO GRANDE PLAINS

CITY           SKY/WX    TMP DP  RH WIND       PRES   REMARKS
VICTORIA       SUNNY     67  31  26 VRB5      30.27F
*BEEVILLE      SUNNY     65  30  26 N3        30.26F
ROCKPORT       SUNNY     66  32  28 NE14      30.26F
*PORT ARANSAS  NOT AVBL
*PORT LAVACA   NOT AVBL
*INGLESIDE     NOT AVBL
CORPUS CHRISTI MOSUNNY   66  32  28 NE9G20    30.26F
CORPUS NAS     SUNNY     67  38  34 NE14      30.26F
*ROBSTOWN      SUNNY     65  30  27 N10G18    30.27F
ALICE          SUNNY     67  25  20 NE10G16   30.26F
KINGSVILLE NAS SUNNY     68  33  27 VRB7      30.26F
COTULLA        SUNNY     65  21  18 SE6       30.27F
*FAITH RANCH   SUNNY     64  28  25 VRB7      30.28F
LAREDO         SUNNY     65  28  24 VRB3      30.28F
$$

TXZ248>255-192100-
DEEP SOUTH TEXAS

CITY           SKY/WX    TMP DP  RH WIND       PRES   REMARKS
BROWNSVILLE    PTSUNNY   69  50  50 N14G24    30.23F
PORT ISABEL    MOSUNNY   68  50  52 N17G25    30.22F
*SOUTH PADRE   NOT AVBL
HARLINGEN      MOSUNNY   68  46  45 NE17G25   30.23F
*HEBBRONVILLE  SUNNY     64  26  24 E7        30.27F HAZE
MCALLEN        SUNNY     69  39  33 NE10      30.26F
*WESLACO       SUNNY     66  41  40 N7G16     30.24F
FALFURRIAS     SUNNY     67  27  22 NE9G16    30.26F
EDINBURG       SUNNY     69  34  27 N8G22     30.26F
*ZAPATA        SUNNY     67  26  21 NW3       30.25F
$$

TXZ213>215-236>238-242>244-246-247-251-254-255-192100-
CMAN STATIONS

STATION/POSITION TIME  TEMP    WIND        PRES    WAVE
                       AIR SEA DIR/SP/G            HT/PER
                 (UTC) (F)     (DEG/KT/KT) (MB)    (FT/S)
SABINE PASS      1924   60 69  360/ 14/ 21 1025.1
SEA RIM ST PARK  1900   61      10/ 14/ 17 1024.3
NORTH JETTY/GLS  1924      67  350/ 11/ 16 1023.5
EAGLE POINT      1924   60 65   50/ 11/ 14 1024.3
MORGANS POINT    1924   61 70   10/  5/  9 1024.1
PORT O`CONNOR    1924   60 64   10/ 10/ 12 1024.9
PORT ARANSAS     1900   59 71   20/ 16/ 18 1025.6
MALAQUITE BEACH  1930   60 70   30/ 15/ 19 1024.8
BAFFIN BAY       1930   61 68   30/ 13/ 17 1025.5
PORT ISABEL      1930   65 73  360/ 13/ 21 1023.1
$$




USA.gov is the U.S. government's official web portal to all federal, state and local government web resources and services.